SCP
0 0 0 0 -0 0 0 0 0 0 0 0 0 0 0 0 0 -0 -0 -0 -0 -0 -0 -0 -0 -0 -0 -0 0 0 0 0 0 0 0 0 -0 -0 -0 -0 0 0 0 -0
0 0 0 0 0 0 0 0 0 0 0 0 0 0 0 0 0 -0 0 -0 -0 -0 -0 -0 -0 -0 -0 0 0 0 0 0 0 0 0 0 0 0 0 0 0 0 0 0
0 0 0 0 0 0 0 0 0 0 0 0 0 0 0 0 0 0 0 -0 0 -0 -0 -0 -0 -0 -0 -0 0 0 0 0 0 0 0 0 0 0 0 0 0 0 0 0
0 0 0 0 0 0 0 2 1 1 1 1 0 0 0 -0 0 0 0 0 -0 -0 -0 -0 0 -0 0 0 -0 -0 0 0 0 0 0 0 0 0 0 0 0 0 0 0
0 0 0 0 0 0 0 0 1 0 0 0 0 0 0 0 0 0 0 0 0 0 0 0 0 0 -0 -0 -0 0 0 0 0 0 0 0 0 0 0 0 0 0 0 0
0 0 0 0 0 0 0 0 0 0 0 0 0 0 0 0 0 0 0 0 0 0 0 0 0 0 0 -0 -0 -0 -0 0 0 0 0 -0 0 0 0 0 0 0 0 0
0 0 0 0 0 0 0 0 0 0 0 0 0 0 0 0 0 0 0 0 0 0 0 0 0 0 0 0 0 0 0 0 0 0 0 0 0 0 0 0 0 0 0 0
0 0 0 0 0 1 0 0 0 0 0 0 0 0 0 0 0 0 0 0 0 1 0 0 0 1 1 0 0 0 0 0 0 0 0 0 0 0 0 0 0 0 0 0
0 0 0 0 0 0 0 0 0 0 0 0 0 0 0 0 0 0 0 0 0 0 0 0 0 0 0 0 0 1 1 0 1 0 1 0 0 0 0 0 0 0 0 0
0 0 0 0 0 0 0 0 0 0 0 0 0 0 0 0 0 0 0 0 0 1 0 0 0 0 0 1 0 1 0 0 0 1 0 0 0 0 0 0 0 0 0 0
0 0 0 0 0 0 0 0 0 0 0 0 0 0 -0 0 0 0 0 0 0 0 1 0 0 1 1 1 0 1 0 0 0 0 0 0 0 0 0 0 0 0 0 0
0 0 0 0 0 0 0 0 0 0 0 0 0 0 0 0 0 0 0 0 0 0 0 0 1 1 1 1 1 0 0 0 0 0 0 0 0 0 0 0 0 0 0 0
0 0 0 0 0 0 0 0 0 0 0 0 0 0 0 0 0 0 0 0 0 0 0 0 1 1 1 1 0 0 0 0 0 0 0 0 0 0 0 0 0 0 0 0
-0 -0 -0 0 0 0 -0 0 0 0 0 0 0 0 0 0 0 0 -0 -0 0 0 0 0 0 0 0 0 0 0 0 0 0 0 0 0 0 0 0 0 0 0 0 0
-0 0 0 0 0 0 0 0 -0 0 0 0 0 0 0 0 0 0 0 0 0 0 0 0 0 0 0 0 0 0 0 0 0 0 0 0 0 0 0 0 0 0 0 0
0 0 0 0 0 0 0 -0 -0 0 0 0 0 0 0 0 0 0 0 0 0 0 0 0 0 0 0 0 0 0 0 0 0 0 0 0 0 0 0 0 0 0 0 0
-0 -0 -0 0 0 0 0 0 0 0 0 0 0 0 0 0 0 -0 0 0 0 0 0 0 0 0 0 0 0 0 0 0 0 0 0 0 0 0 0 0 0 0 0 0
-0 -0 0 0 0 0 0 0 0 0 -0 0 0 0 0 0 0 0 0 0 0 0 0 0 0 0 0 0 0 0 0 0 0 0 0 0 0 0 0 0 0 0 0 0
-0 -0 -0 -0 -0 0 0 0 0 0 -0 0 0 0 0 0 0 0 0 0 0 0 0 0 0 0 0 0 0 0 0 0 0 0 0 0 0 0 0 0 0 0 0 0
-0 -0 0 0 -0 -0 0 -0 0 0 0 -0 0 0 0 0 0 0 0 0 0 0 0 0 0 0 0 0 0 -0 0 0 0 0 0 0 0 0 0 0 0 0 0 0
-0 -0 0 0 0 0 0 0 0 -0 0 -0 0 0 0 0 0 0 -0 0 0 0 0 0 0 0 0 0 0 -0 0 0 0 0 0 0 0 0 0 0 0 0 0 0
-0 0 -0 0 0 0 0 0 -0 0 0 0 0 -0 0 0 0 0 0 0 0 0 0 0 -0 -0 0 -0 0 0 0 0 0 0 0 0 0 0 0 0 0 0 0 0
-0 -0 -0 -0 0 0 0 0 0 0 0 0 -0 0 0 0 0 0 0 0 0 0 0 0 0 -0 -0 -0 0 0 0 0 0 0 0 0 0 0 0 0 0 0 0 0
-0 -0 -0 0 0 0 0 0 0 0 0 0 0 0 0 0 0 0 0 0 0 0 0 0 0 0 -0 0 0 0 0 0 0 0 0 0 0 0 0 0 0 0 0 0
0 0 0 0 0 0 0 0 0 0 0 0 0 0 0 0 0 0 0 0 0 0 0 0 0 0 0 0 0 0 0 0 0 0 0 0 0 0 0 0 0 0 0 0
-0 0 0 0 0 0 0 0 0 0 0 0 0 0 0 0 0 0 0 0 0 0 0 0 0 0 0 0 0 0 0 0 0 0 0 0 0 0 0 0 0 0 0 0
-0 0 0 0 0 0 0 0 0 0 0 0 0 0 0 0 0 0 0 0 0 0 0 -0 0 0 0 0 0 0 0 0 0 0 0 0 0 0 0 0 0 0 0 0
Wind_Speed_500mb
12 15 10 12 12 11 11 11 11 14 14 18 17 19 25 47 50 59 47 46 57 65 74 73 78 80 52 74 81 73 62 52 47 50 50 45 45 42 38 40 41 40 38 38
12 13 15 19 22 19 16 13 12 10 11 7 41 44 29 29 41 61 59 61 57 56 65 74 82 85 97 83 68 77 65 55 47 45 47 44 38 34 35 36 38 39 42 44
12 5 11 18 15 11 7 7 1 2 8 20 23 18 37 39 46 58 58 68 64 66 71 82 84 86 82 78 75 78 67 57 46 45 49 43 40 37 31 35 37 44 36 32
8 3 10 14 4 4 12 8 8 7 11 20 25 49 51 54 41 61 46 54 56 55 61 74 79 77 81 74 73 73 61 60 52 45 43 39 38 34 38 31 36 35 30 30
5 6 13 19 16 4 12 11 3 9 17 26 50 31 30 20 36 58 48 41 48 44 50 61 68 69 77 71 67 69 67 60 53 46 42 39 39 35 33 30 27 28 25 27
5 7 10 4 18 33 24 8 5 7 10 20 34 7 10 12 12 39 44 45 46 42 53 57 64 67 68 69 64 64 59 54 49 45 41 34 34 34 32 26 24 25 27 28
8 10 10 6 35 27 10 8 8 9 12 20 6 16 58 59 23 21 27 34 38 43 51 52 60 59 67 64 47 42 43 39 41 46 39 33 32 29 26 26 25 24 21 20
3 6 12 21 16 3 8 11 13 19 15 26 36 46 45 28 19 20 25 28 38 52 53 48 52 61 69 63 42 37 36 35 40 41 39 35 31 27 23 21 19 19 19 17
10 9 10 33 26 32 32 34 26 27 24 23 35 45 47 29 16 16 17 11 30 50 58 46 48 47 47 44 42 41 40 39 39 37 35 32 29 23 21 19 17 17 20 20
5 8 16 47 63 55 42 51 44 34 36 26 34 38 48 35 24 16 13 11 30 51 59 47 47 47 37 35 41 42 40 37 36 34 33 28 21 19 21 20 18 16 19 22
14 29 54 67 38 44 45 43 50 47 44 42 38 36 48 47 35 29 18 12 11 27 48 53 50 49 45 39 40 43 36 33 33 30 26 23 21 19 18 18 20 23 22 22
14 40 34 55 52 66 66 63 50 41 41 44 43 33 37 46 30 27 21 17 16 21 46 64 57 58 49 38 31 33 33 32 30 26 23 20 20 21 21 21 23 25 28 30
46 64 56 64 67 67 60 49 44 37 41 45 48 36 28 31 22 29 27 23 27 29 38 37 44 48 45 36 32 28 29 28 28 25 25 25 23 23 30 31 28 30 30 30
21 30 42 50 51 44 50 44 45 37 32 46 49 39 43 40 25 25 29 31 29 26 27 39 40 42 38 38 31 27 24 23 26 26 26 23 20 20 21 20 21 20 21 25
42 43 37 37 36 37 38 33 38 51 46 42 33 34 36 37 21 25 31 33 32 38 23 45 42 42 40 39 33 28 27 30 29 24 22 20 20 20 19 17 17 19 22 27
65 58 40 30 31 27 31 27 34 42 41 35 34 34 29 17 12 25 28 27 41 53 46 45 58 44 28 30 33 30 28 28 24 19 24 23 22 21 21 21 20 23 29 29
50 52 36 45 34 27 28 30 39 30 34 29 28 31 11 12 22 25 24 24 33 41 50 52 67 54 54 54 46 32 29 30 25 25 27 24 25 24 21 19 23 27 27 27
52 54 52 47 45 38 32 30 26 19 19 15 29 39 13 14 28 26 25 37 43 49 50 52 53 78 63 38 37 33 33 36 32 30 29 25 22 20 20 22 25 22 22 33
43 49 50 48 42 38 31 35 29 16 11 23 30 23 15 13 22 17 24 42 58 55 54 55 65 74 97 81 73 52 41 41 43 43 39 27 26 22 21 21 22 26 27 35
31 35 42 43 41 39 38 36 34 25 23 24 24 25 23 15 18 11 33 45 44 42 42 57 58 69 87 81 76 77 61 51 52 50 47 37 28 22 23 23 24 26 28 35
28 20 28 33 35 37 36 33 27 29 24 24 26 24 26 23 22 20 22 63 53 39 35 41 40 44 40 78 86 88 75 62 59 52 48 43 31 26 26 30 31 28 28 36
33 24 24 25 30 34 35 33 30 26 26 24 30 25 25 25 25 31 31 35 53 33 37 46 65 43 35 50 69 75 68 53 51 48 46 39 32 31 32 34 33 30 31 31
43 29 25 32 33 33 28 30 28 28 28 29 27 29 25 26 27 29 25 30 34 53 41 44 59 71 58 55 40 44 35 33 33 37 34 32 35 35 34 36 30 31 36 28
46 29 10 18 22 23 21 20 24 21 19 21 23 19 21 24 27 25 19 14 18 31 49 49 54 52 75 72 45 37 35 35 31 27 22 22 24 29 33 35 38 37 31 27
41 19 14 15 11 9 3 4 12 15 10 8 8 8 16 21 24 25 23 21 28 28 33 44 49 48 50 58 42 44 33 25 23 16 11 18 26 31 38 41 36 26 23 28
45 44 34 18 9 7 4 5 9 12 13 14 8 8 15 17 20 21 16 15 17 22 24 47 45 48 51 22 24 41 45 35 18 15 15 21 34 38 37 30 23 20 25 25
33 38 40 34 27 25 18 12 3 4 7 11 10 7 12 20 20 20 21 16 32 12 11 21 38 40 44 36 35 23 21 24 28 15 9 16 22 21 18 19 18 17 21 20
Wind_Direction_500mb
240 257 260 259 238 259 230 209 176 255 209 266 274 283 253 247 238 238 221 217 206 199 202 210 206 205 184 224 216 208 211 210 213 213 213 218 221 222 224 226 230 236 240 243
278 229 248 285 279 255 225 243 230 249 268 223 306 304 284 230 214 234 225 211 210 210 211 209 213 213 208 217 211 215 210 213 210 207 204 207 212 220 226 237 242 249 256 254
259 232 338 298 229 192 135 89 261 182 248 328 314 302 275 265 223 215 233 214 206 223 219 217 215 217 218 222 216 209 212 211 214 213 217 215 221 224 237 245 248 255 251 242
273 248 222 250 318 335 114 104 337 285 315 321 320 313 298 271 251 223 231 223 222 211 213 218 219 219 223 221 213 213 218 215 216 219 221 226 228 226 241 252 254 257 256 257
211 202 289 304 295 201 184 217 283 310 336 339 331 328 272 251 243 218 224 227 222 221 214 215 220 220 221 216 218 214 218 217 220 223 228 234 228 237 238 245 256 257 254 256
139 198 250 256 319 329 320 261 354 6 355 345 346 13 277 6 274 211 212 221 218 220 220 218 215 216 212 209 213 215 217 220 221 224 229 232 231 239 242 242 242 247 262 269
232 227 275 328 310 319 159 246 312 330 353 347 323 268 296 309 283 226 227 220 216 213 216 219 218 209 205 204 214 214 211 218 219 223 220 225 238 240 234 233 241 253 250 251
292 250 270 348 343 51 269 307 281 307 306 337 332 335 326 327 284 253 266 233 220 211 208 206 208 206 206 216 220 207 213 211 212 211 213 218 226 221 226 235 240 241 232 237
204 249 280 299 263 293 280 279 278 281 301 324 326 336 342 336 320 288 327 273 218 222 210 191 193 200 201 207 208 202 205 203 200 198 207 214 216 225 221 215 223 232 234 242
331 265 269 301 305 296 285 265 272 279 282 300 309 320 338 337 328 278 328 290 209 211 216 189 191 183 186 183 189 190 190 190 192 201 202 209 216 226 222 223 238 233 260 269
260 280 282 287 318 335 325 287 275 272 276 284 291 299 326 338 322 308 320 272 272 216 223 205 196 196 195 187 185 190 193 197 198 200 205 212 226 219 225 228 243 254 266 274
251 270 263 274 296 309 313 302 279 279 285 288 277 289 310 328 327 317 336 293 277 266 233 220 208 204 194 194 193 188 196 198 199 205 204 209 205 209 226 242 258 266 269 271
265 277 277 276 289 290 292 299 300 288 288 286 277 280 290 326 332 293 320 315 275 277 246 226 221 199 190 191 184 193 200 203 205 204 195 192 207 236 252 256 265 274 273 271
347 319 284 274 274 293 296 295 294 290 285 286 288 274 277 290 320 313 304 300 235 250 260 213 212 202 186 184 186 191 193 200 201 195 201 207 228 249 254 253 264 275 279 280
331 328 315 303 292 287 309 277 265 277 274 293 286 275 287 279 298 303 289 265 233 222 259 204 193 191 179 178 187 202 197 194 192 197 210 223 236 241 254 261 279 289 295 293
316 316 311 310 292 300 322 314 275 275 276 298 280 275 290 270 294 292 271 232 212 213 220 199 191 197 180 200 201 210 218 207 183 198 222 231 238 243 257 268 283 297 305 301
292 303 291 300 301 298 302 315 315 278 280 276 270 298 262 304 317 302 257 209 204 212 215 211 197 186 190 210 208 208 216 227 195 206 227 232 240 249 258 274 292 299 303 304
274 275 275 278 282 286 284 293 310 275 267 297 296 293 261 301 311 298 238 204 198 201 207 207 207 212 206 216 234 214 220 221 226 215 219 235 239 248 273 293 303 307 311 321
273 263 264 260 258 267 275 278 290 305 252 256 262 278 273 307 301 285 222 203 208 205 210 215 212 215 192 204 213 226 229 226 226 227 229 229 240 254 274 298 307 305 310 326
291 264 254 246 242 246 252 257 271 276 276 278 260 269 258 296 309 273 208 199 205 216 230 230 218 213 210 209 200 224 231 226 226 228 229 235 239 257 272 289 305 301 309 323
325 292 254 240 234 239 248 256 266 269 255 274 262 261 277 283 293 290 237 217 225 241 232 213 193 197 210 218 215 224 221 219 217 223 233 238 242 252 275 291 298 299 304 317
337 311 278 252 235 243 248 253 257 258 242 257 240 281 284 270 289 297 274 243 220 219 228 206 192 205 203 187 204 213 212 214 222 229 230 231 245 258 271 283 293 293 299 307
349 316 272 253 244 248 253 246 248 254 260 258 267 276 271 274 282 295 286 256 239 219 226 240 214 218 219 220 204 198 204 218 214 219 226 241 253 258 272 285 284 287 295 292
6 7 345 236 220 229 239 225 238 239 244 258 262 246 257 272 283 295 286 256 243 233 238 247 230 225 210 208 213 208 211 222 229 231 233 232 253 274 284 284 285 285 275 273
4 357 41 84 152 176 241 249 225 220 217 212 208 219 258 265 287 285 272 252 231 239 240 235 225 234 222 205 212 217 216 191 169 183 242 287 299 300 295 287 282 281 264 266
28 44 39 39 65 119 143 211 222 229 232 243 222 234 270 251 254 265 273 225 204 194 214 221 212 203 196 221 223 173 172 180 197 290 293 322 321 303 289 280 272 271 271 271
49 29 28 49 65 70 70 85 51 196 147 148 154 184 215 238 252 243 215 183 179 194 212 194 195 199 209 206 212 208 238 264 293 277 289 292 310 308 309 290 273 258 267 266
Wind_Speed_850mb
12 15 10 12 12 11 11 11 11 14 14 18 17 19 25 47 50 59 47 46 57 65 74 73 78 80 52 74 81 73 62 52 47 50 50 45 45 42 38 40 41 40 38 38
12 13 15 19 22 19 16 13 12 10 11 7 41 44 29 29 41 61 59 61 57 56 65 74 82 85 97 83 68 77 65 55 47 45 47 44 38 34 35 36 38 39 42 44
12 5 11 18 15 11 7 7 1 2 8 20 23 18 37 39 46 58 58 68 64 66 71 82 84 86 82 78 75 78 67 57 46 45 49 43 40 37 31 35 37 44 36 32
8 3 10 14 4 4 12 8 8 7 11 20 25 49 51 54 41 61 46 54 56 55 61 74 79 77 81 74 73 73 61 60 52 45 43 39 38 34 38 31 36 35 30 30
5 6 13 19 16 4 12 11 3 9 17 26 50 31 30 20 36 58 48 41 48 44 50 61 68 69 77 71 67 69 67 60 53 46 42 39 39 35 33 30 27 28 25 27
5 7 10 4 18 33 24 8 5 7 10 20 34 7 10 12 12 39 44 45 46 42 53 57 64 67 68 69 64 64 59 54 49 45 41 34 34 34 32 26 24 25 27 28
8 10 10 6 35 27 10 8 8 9 12 20 6 16 58 59 23 21 27 34 38 43 51 52 60 59 67 64 47 42 43 39 41 46 39 33 32 29 26 26 25 24 21 20
3 6 12 21 16 3 8 11 13 19 15 26 36 46 45 28 19 20 25 28 38 52 53 48 52 61 69 63 42 37 36 35 40 41 39 35 31 27 23 21 19 19 19 17
10 9 10 33 26 32 32 34 26 27 24 23 35 45 47 29 16 16 17 11 30 50 58 46 48 47 47 44 42 41 40 39 39 37 35 32 29 23 21 19 17 17 20 20
5 8 16 47 63 55 42 51 44 34 36 26 34 38 48 35 24 16 13 11 30 51 59 47 47 47 37 35 41 42 40 37 36 34 33 28 21 19 21 20 18 16 19 22
14 29 54 67 38 44 45 43 50 47 44 42 38 36 48 47 35 29 18 12 11 27 48 53 50 49 45 39 40 43 36 33 33 30 26 23 21 19 18 18 20 23 22 22
14 40 34 55 52 66 66 63 50 41 41 44 43 33 37 46 30 27 21 17 16 21 46 64 57 58 49 38 31 33 33 32 30 26 23 20 20 21 21 21 23 25 28 30
46 64 56 64 67 67 60 49 44 37 41 45 48 36 28 31 22 29 27 23 27 29 38 37 44 48 45 36 32 28 29 28 28 25 25 25 23 23 30 31 28 30 30 30
21 30 42 50 51 44 50 44 45 37 32 46 49 39 43 40 25 25 29 31 29 26 27 39 40 42 38 38 31 27 24 23 26 26 26 23 20 20 21 20 21 20 21 25
42 43 37 37 36 37 38 33 38 51 46 42 33 34 36 37 21 25 31 33 32 38 23 45 42 42 40 39 33 28 27 30 29 24 22 20 20 20 19 17 17 19 22 27
65 58 40 30 31 27 31 27 34 42 41 35 34 34 29 17 12 25 28 27 41 53 46 45 58 44 28 30 33 30 28 28 24 19 24 23 22 21 21 21 20 23 29 29
50 52 36 45 34 27 28 30 39 30 34 29 28 31 11 12 22 25 24 24 33 41 50 52 67 54 54 54 46 32 29 30 25 25 27 24 25 24 21 19 23 27 27 27
52 54 52 47 45 38 32 30 26 19 19 15 29 39 13 14 28 26 25 37 43 49 50 52 53 78 63 38 37 33 33 36 32 30 29 25 22 20 20 22 25 22 22 33
43 49 50 48 42 38 31 35 29 16 11 23 30 23 15 13 22 17 24 42 58 55 54 55 65 74 97 81 73 52 41 41 43 43 39 27 26 22 21 21 22 26 27 35
31 35 42 43 41 39 38 36 34 25 23 24 24 25 23 15 18 11 33 45 44 42 42 57 58 69 87 81 76 77 61 51 52 50 47 37 28 22 23 23 24 26 28 35
28 20 28 33 35 37 36 33 27 29 24 24 26 24 26 23 22 20 22 63 53 39 35 41 40 44 40 78 86 88 75 62 59 52 48 43 31 26 26 30 31 28 28 36
33 24 24 25 30 34 35 33 30 26 26 24 30 25 25 25 25 31 31 35 53 33 37 46 65 43 35 50 69 75 68 53 51 48 46 39 32 31 32 34 33 30 31 31
43 29 25 32 33 33 28 30 28 28 28 29 27 29 25 26 27 29 25 30 34 53 41 44 59 71 58 55 40 44 35 33 33 37 34 32 35 35 34 36 30 31 36 28
46 29 10 18 22 23 21 20 24 21 19 21 23 19 21 24 27 25 19 14 18 31 49 49 54 52 75 72 45 37 35 35 31 27 22 22 24 29 33 35 38 37 31 27
41 19 14 15 11 9 3 4 12 15 10 8 8 8 16 21 24 25 23 21 28 28 33 44 49 48 50 58 42 44 33 25 23 16 11 18 26 31 38 41 36 26 23 28
45 44 34 18 9 7 4 5 9 12 13 14 8 8 15 17 20 21 16 15 17 22 24 47 45 48 51 22 24 41 45 35 18 15 15 21 34 38 37 30 23 20 25 25
33 38 40 34 27 25 18 12 3 4 7 11 10 7 12 20 20 20 21 16 32 12 11 21 38 40 44 36 35 23 21 24 28 15 9 16 22 21 18 19 18 17 21 20
Wind_Direction_850mb
240 257 260 259 238 259 230 209 176 255 209 266 274 283 253 247 238 238 221 217 206 199 202 210 206 205 184 224 216 208 211 210 213 213 213 218 221 222 224 226 230 236 240 243
278 229 248 285 279 255 225 243 230 249 268 223 306 304 284 230 214 234 225 211 210 210 211 209 213 213 208 217 211 215 210 213 210 207 204 207 212 220 226 237 242 249 256 254
259 232 338 298 229 192 135 89 261 182 248 328 314 302 275 265 223 215 233 214 206 223 219 217 215 217 218 222 216 209 212 211 214 213 217 215 221 224 237 245 248 255 251 242
273 248 222 250 318 335 114 104 337 285 315 321 320 313 298 271 251 223 231 223 222 211 213 218 219 219 223 221 213 213 218 215 216 219 221 226 228 226 241 252 254 257 256 257
211 202 289 304 295 201 184 217 283 310 336 339 331 328 272 251 243 218 224 227 222 221 214 215 220 220 221 216 218 214 218 217 220 223 228 234 228 237 238 245 256 257 254 256
139 198 250 256 319 329 320 261 354 6 355 345 346 13 277 6 274 211 212 221 218 220 220 218 215 216 212 209 213 215 217 220 221 224 229 232 231 239 242 242 242 247 262 269
232 227 275 328 310 319 159 246 312 330 353 347 323 268 296 309 283 226 227 220 216 213 216 219 218 209 205 204 214 214 211 218 219 223 220 225 238 240 234 233 241 253 250 251
292 250 270 348 343 51 269 307 281 307 306 337 332 335 326 327 284 253 266 233 220 211 208 206 208 206 206 216 220 207 213 211 212 211 213 218 226 221 226 235 240 241 232 237
204 249 280 299 263 293 280 279 278 281 301 324 326 336 342 336 320 288 327 273 218 222 210 191 193 200 201 207 208 202 205 203 200 198 207 214 216 225 221 215 223 232 234 242
331 265 269 301 305 296 285 265 272 279 282 300 309 320 338 337 328 278 328 290 209 211 216 189 191 183 186 183 189 190 190 190 192 201 202 209 216 226 222 223 238 233 260 269
260 280 282 287 318 335 325 287 275 272 276 284 291 299 326 338 322 308 320 272 272 216 223 205 196 196 195 187 185 190 193 197 198 200 205 212 226 219 225 228 243 254 266 274
251 270 263 274 296 309 313 302 279 279 285 288 277 289 310 328 327 317 336 293 277 266 233 220 208 204 194 194 193 188 196 198 199 205 204 209 205 209 226 242 258 266 269 271
265 277 277 276 289 290 292 299 300 288 288 286 277 280 290 326 332 293 320 315 275 277 246 226 221 199 190 191 184 193 200 203 205 204 195 192 207 236 252 256 265 274 273 271
347 319 284 274 274 293 296 295 294 290 285 286 288 274 277 290 320 313 304 300 235 250 260 213 212 202 186 184 186 191 193 200 201 195 201 207 228 249 254 253 264 275 279 280
331 328 315 303 292 287 309 277 265 277 274 293 286 275 287 279 298 303 289 265 233 222 259 204 193 191 179 178 187 202 197 194 192 197 210 223 236 241 254 261 279 289 295 293
316 316 311 310 292 300 322 314 275 275 276 298 280 275 290 270 294 292 271 232 212 213 220 199 191 197 180 200 201 210 218 207 183 198 222 231 238 243 257 268 283 297 305 301
292 303 291 300 301 298 302 315 315 278 280 276 270 298 262 304 317 302 257 209 204 212 215 211 197 186 190 210 208 208 216 227 195 206 227 232 240 249 258 274 292 299 303 304
274 275 275 278 282 286 284 293 310 275 267 297 296 293 261 301 311 298 238 204 198 201 207 207 207 212 206 216 234 214 220 221 226 215 219 235 239 248 273 293 303 307 311 321
273 263 264 260 258 267 275 278 290 305 252 256 262 278 273 307 301 285 222 203 208 205 210 215 212 215 192 204 213 226 229 226 226 227 229 229 240 254 274 298 307 305 310 326
291 264 254 246 242 246 252 257 271 276 276 278 260 269 258 296 309 273 208 199 205 216 230 230 218 213 210 209 200 224 231 226 226 228 229 235 239 257 272 289 305 301 309 323
325 292 254 240 234 239 248 256 266 269 255 274 262 261 277 283 293 290 237 217 225 241 232 213 193 197 210 218 215 224 221 219 217 223 233 238 242 252 275 291 298 299 304 317
337 311 278 252 235 243 248 253 257 258 242 257 240 281 284 270 289 297 274 243 220 219 228 206 192 205 203 187 204 213 212 214 222 229 230 231 245 258 271 283 293 293 299 307
349 316 272 253 244 248 253 246 248 254 260 258 267 276 271 274 282 295 286 256 239 219 226 240 214 218 219 220 204 198 204 218 214 219 226 241 253 258 272 285 284 287 295 292
6 7 345 236 220 229 239 225 238 239 244 258 262 246 257 272 283 295 286 256 243 233 238 247 230 225 210 208 213 208 211 222 229 231 233 232 253 274 284 284 285 285 275 273
4 357 41 84 152 176 241 249 225 220 217 212 208 219 258 265 287 285 272 252 231 239 240 235 225 234 222 205 212 217 216 191 169 183 242 287 299 300 295 287 282 281 264 266
28 44 39 39 65 119 143 211 222 229 232 243 222 234 270 251 254 265 273 225 204 194 214 221 212 203 196 221 223 173 172 180 197 290 293 322 321 303 289 280 272 271 271 271
49 29 28 49 65 70 70 85 51 196 147 148 154 184 215 238 252 243 215 183 179 194 212 194 195 199 209 206 212 208 238 264 293 277 289 292 310 308 309 290 273 258 267 266